Tracking 25744 objects as of 25-Jun-2022
HD Live streaming from Space Station
objects crossing your sky now

STARLINK-3340

Track STARLINK-3340 now!
10-day predictions
STARLINK-3340 is classified as:


NORAD ID: 50824
Int'l Code: 2022-001X
Perigee: 545.0 km
Apogee: 548.7 km
Inclination: 53.2 °
Period: 95.4 minutes
Semi major axis: 6917 km
RCS: Unknown
Launch date: January 6, 2022
Source: United States (US)
Launch site: AIR FORCE EASTERN TEST RANGE (AFETR)
aabbcc
Your satellite tracking list
Your tracking list is empty




NASA's NSSDC Master Catalog

Two Line Element Set (TLE):
1 50824U 22001X   22175.26252829  .00000825  00000-0  69949-4 0  9993
2 50824  53.2187 129.3910 0002672  58.5740 301.5514 15.08838423 25938
Source of the keplerian elements: AFSPC